Orbital Elements at Epoch 2459200.5 (2020-Dec-17.0) TDB
Reference: JPL 16 (heliocentric ecliptic J2000)
Element | Value | Uncertainty (1-sigma) | Units |
e | .2102768144152393 | 7.7964e-08 | |
a | 2.429121503835279 | 1.8918e-08 | au |
q | 1.918333572181241 | 1.8614e-07 | au |
i | 2.346332749088982 | 7.0374e-06 | deg |
node | 155.9037146690983 | 0.00016077 | deg |
peri | 241.5682849355095 | 0.00016117 | deg |
M | 317.8211937348825 | 1.4962e-05 | deg |
tp | 2459362.518299004342 (2021-May-28.01829900) | 5.8714e-05 | TDB |
period | 1382.841118711319 3.79 | 1.6155e-05 4.423e-08 | d yr |
n | .2603335951822772 | 3.0413e-09 | deg/d |
Q | 2.939909435489317 | 2.2896e-08 | au |
|
| | Orbit Determination Parameters
Additional Information
|